Location: Wildcat Hills Observatory
(41.6350°N, 103.6812°W)
Time: 13:45:40
(UTC-06:00)

Nimbus 7 Rocket - Pass Details

Date: 23 June 2018
Orbit: 922 x 965 km, 99.5° (Epoch: 21 October)

Event Time Altitude Azimuth Distance (km) Brightness Sun altitude
Rises 23:13:27 0° 13° (NNE) 3,631 8.3 -20.7°
Reaches altitude 10° 23:15:54 10° 12° (NNE) 2,687 7.5 -20.9°
Maximum altitude 23:21:55 80° 287° (WNW) 979 4.5 -21.3°
Enters shadow 23:25:19 28° 204° (SSW) 1,723 5.4 -21.6°
